Time,TemperatureF,DewpointF,PressureIn,WindDirection,WindDirectionDegrees,WindSpeedMPH,WindSpeedGustMPH,Humidity,HourlyPrecipIn,Conditions,Clouds,dailyrainin,SoftwareType,DateUTC
2013-01-31 00:02:00,-999.0,-99.9,30.20,North,0,0.0,0.0,-999,0.00,,,0.00,,2013-01-30 23:02:00,
2013-01-31 00:07:00,-999.0,-99.9,30.20,North,0,0.0,0.0,-999,0.00,,,0.00,,2013-01-30 23:07:00,
2013-01-31 00:12:00,-999.0,-99.9,30.20,North,0,0.0,0.0,-999,0.00,,,0.00,,2013-01-30 23:12:00,
2013-01-31 00:17:00,-999.0,-99.9,30.17,North,0,0.0,0.0,-999,0.00,,,0.00,,2013-01-30 23:17:00,
2013-01-31 00:22:00,-999.0,-99.9,30.17,North,0,0.0,0.0,-999,0.00,,,0.00,,2013-01-30 23:22:00,
2013-01-31 00:27:00,-999.0,-99.9,30.20,North,0,0.0,0.0,-999,0.00,,,0.00,,2013-01-30 23:27:00,
2013-01-31 00:32:00,-999.0,-99.9,30.20,North,0,0.0,0.0,-999,0.00,,,0.00,,2013-01-30 23:32:00,
2013-01-31 00:37:00,-999.0,-99.9,30.20,North,0,0.0,0.0,-999,0.00,,,0.00,,2013-01-30 23:37:00,
2013-01-31 00:42:00,-999.0,-99.9,30.20,North,0,0.0,0.0,-999,0.00,,,0.00,,2013-01-30 23:42:00,
2013-01-31 00:47:00,-999.0,-99.9,30.20,North,0,0.0,0.0,-999,0.00,,,0.00,,2013-01-30 23:47:00,
2013-01-31 00:52:00,-999.0,-99.9,30.20,North,0,0.0,0.0,-999,0.00,,,0.00,,2013-01-30 23:52:00,
2013-01-31 00:57:00,-999.0,-99.9,30.17,North,0,0.0,0.0,-999,0.00,,,0.00,,2013-01-30 23:57:00,
2013-01-31 01:02:00,-999.0,-99.9,30.17,North,0,0.0,0.0,-999,0.00,,,0.00,,2013-01-31 00:02:00,
2013-01-31 01:07:00,-999.0,-99.9,30.17,North,0,0.0,0.0,-999,0.00,,,0.00,,2013-01-31 00:07:00,
2013-01-31 01:12:00,-999.0,-99.9,30.17,North,0,0.0,0.0,-999,0.00,,,0.00,,2013-01-31 00:12:00,
2013-01-31 01:17:00,-999.0,-99.9,30.17,North,0,0.0,0.0,-999,0.00,,,0.00,,2013-01-31 00:17:00,
2013-01-31 01:22:00,-999.0,-99.9,30.17,North,0,0.0,0.0,-999,0.00,,,0.00,,2013-01-31 00:22:00,
2013-01-31 01:27:00,-999.0,-99.9,30.17,North,0,0.0,0.0,-999,0.00,,,0.00,,2013-01-31 00:27:00,
2013-01-31 01:32:00,-999.0,-99.9,30.17,North,0,0.0,0.0,-999,0.00,,,0.00,,2013-01-31 00:32:00,
2013-01-31 01:37:00,-999.0,-99.9,30.17,North,0,0.0,0.0,-999,0.00,,,0.00,,2013-01-31 00:37:00,
2013-01-31 01:42:00,-999.0,-99.9,30.17,North,0,0.0,0.0,-999,0.00,,,0.00,,2013-01-31 00:42:00,
2013-01-31 01:47:00,-999.0,-99.9,30.17,North,0,0.0,0.0,-999,0.00,,,0.00,,2013-01-31 00:47:00,
2013-01-31 01:52:00,-999.0,-99.9,30.17,North,0,0.0,0.0,-999,0.00,,,0.00,,2013-01-31 00:52:00,
2013-01-31 01:57:00,-999.0,-99.9,30.17,North,0,0.0,0.0,-999,0.00,,,0.00,,2013-01-31 00:57:00,
2013-01-31 02:02:00,-999.0,-99.9,30.17,North,0,0.0,0.0,-999,0.00,,,0.00,,2013-01-31 01:02:00,
2013-01-31 02:07:00,-999.0,-99.9,30.17,North,0,0.0,0.0,-999,0.00,,,0.00,,2013-01-31 01:07:00,
2013-01-31 02:12:00,-999.0,-99.9,30.17,North,0,0.0,0.0,-999,0.00,,,0.00,,2013-01-31 01:12:00,
2013-01-31 02:17:00,-999.0,-99.9,30.17,North,0,0.0,0.0,-999,0.00,,,0.00,,2013-01-31 01:17:00,
2013-01-31 02:22:00,-999.0,-99.9,30.17,North,0,0.0,0.0,-999,0.00,,,0.00,,2013-01-31 01:22:00,
2013-01-31 02:27:00,-999.0,-99.9,30.17,North,0,0.0,0.0,-999,0.00,,,0.00,,2013-01-31 01:27:00,
2013-01-31 02:32:00,-999.0,-99.9,30.17,North,0,0.0,0.0,-999,0.00,,,0.00,,2013-01-31 01:32:00,
2013-01-31 02:37:00,51.1,41.2,30.17,East,90,0.4,1.3,69,0.00,,,0.00,,2013-01-31 01:37:00,
2013-01-31 02:42:00,49.5,41.7,30.17,East,90,0.0,0.0,75,0.00,,,0.00,,2013-01-31 01:42:00,
2013-01-31 02:47:00,49.1,41.7,30.17,East,90,0.0,0.0,76,0.00,,,0.00,,2013-01-31 01:47:00,
2013-01-31 02:52:00,48.9,41.5,30.17,East,90,0.4,0.4,76,0.00,,,0.00,,2013-01-31 01:52:00,
2013-01-31 02:57:00,48.7,41.4,30.17,East,90,0.0,0.4,76,0.00,,,0.00,,2013-01-31 01:57:00,
2013-01-31 03:02:00,48.7,41.4,30.17,East,90,0.0,0.0,76,0.00,,,0.00,,2013-01-31 02:02:00,
2013-01-31 03:07:00,48.6,41.2,30.15,East,90,0.0,0.0,76,0.00,,,0.00,,2013-01-31 02:07:00,
2013-01-31 03:12:00,48.4,41.4,30.15,NE,45,0.4,1.3,77,0.00,,,0.00,,2013-01-31 02:12:00,
2013-01-31 03:17:00,48.6,41.9,30.17,East,90,0.0,0.0,78,0.00,,,0.00,,2013-01-31 02:17:00,
2013-01-31 03:22:00,48.6,41.9,30.17,North,0,0.8,1.3,78,0.00,,,0.00,,2013-01-31 02:22:00,
2013-01-31 03:27:00,48.2,41.5,30.15,East,90,0.4,0.4,78,0.00,,,0.00,,2013-01-31 02:27:00,
2013-01-31 03:32:00,48.2,41.5,30.15,NE,45,0.0,0.0,78,0.00,,,0.00,,2013-01-31 02:32:00,
2013-01-31 03:37:00,48.0,41.4,30.15,NE,45,0.0,0.0,78,0.00,,,0.00,,2013-01-31 02:37:00,
2013-01-31 03:42:00,47.7,41.0,30.15,East,90,0.0,0.0,78,0.00,,,0.00,,2013-01-31 02:42:00,
2013-01-31 03:47:00,47.5,40.8,30.15,East,90,0.4,1.3,78,0.00,,,0.00,,2013-01-31 02:47:00,
2013-01-31 03:52:00,47.5,40.8,30.15,NE,45,1.3,2.2,78,0.00,,,0.00,,2013-01-31 02:52:00,
2013-01-31 03:57:00,47.7,41.0,30.17,North,0,0.0,0.0,78,0.00,,,0.00,,2013-01-31 02:57:00,
2013-01-31 04:02:00,47.3,41.0,30.17,North,0,0.8,0.8,79,0.00,,,0.00,,2013-01-31 03:02:00,
2013-01-31 04:07:00,47.5,41.2,30.17,East,90,1.3,1.7,79,0.00,,,0.00,,2013-01-31 03:07:00,
2013-01-31 04:12:00,47.5,41.2,30.17,East,90,0.4,0.4,79,0.00,,,0.00,,2013-01-31 03:12:00,
2013-01-31 04:17:00,47.5,41.2,30.15,East,90,0.4,0.4,79,0.00,,,0.00,,2013-01-31 03:17:00,
2013-01-31 04:22:00,47.5,41.2,30.15,East,90,0.4,0.0,79,0.00,,,0.00,,2013-01-31 03:22:00,
2013-01-31 04:27:00,47.1,40.8,30.15,East,90,0.4,0.8,79,0.00,,,0.00,,2013-01-31 03:27:00,
2013-01-31 04:32:00,46.9,41.0,30.15,East,90,0.4,2.6,80,0.00,,,0.00,,2013-01-31 03:32:00,
2013-01-31 04:37:00,46.9,41.0,30.17,East,90,0.0,0.0,80,0.00,,,0.00,,2013-01-31 03:37:00,
2013-01-31 04:42:00,46.8,40.8,30.17,East,90,1.7,2.2,80,0.00,,,0.00,,2013-01-31 03:42:00,
2013-01-31 04:52:00,46.8,40.8,30.17,East,90,0.0,1.7,80,0.00,,,0.00,,2013-01-31 03:52:00,
2013-01-31 04:57:00,46.2,41.2,30.17,NE,45,0.4,0.8,83,0.00,,,0.00,,2013-01-31 03:57:00,
2013-01-31 05:02:00,46.2,41.2,30.17,East,90,1.3,1.3,83,0.00,,,0.00,,2013-01-31 04:02:00,
2013-01-31 05:07:00,46.2,41.5,30.17,East,90,0.8,0.0,84,0.00,,,0.00,,2013-01-31 04:07:00,
2013-01-31 05:12:00,45.9,41.2,30.17,SE,135,0.0,0.0,84,0.00,,,0.00,,2013-01-31 04:12:00,
2013-01-31 05:17:00,45.9,41.2,30.17,North,0,0.8,0.8,84,0.00,,,0.00,,2013-01-31 04:17:00,
2013-01-31 05:22:00,45.5,40.5,30.17,North,0,0.0,0.0,83,0.00,,,0.00,,2013-01-31 04:22:00,
2013-01-31 05:27:00,45.3,40.6,30.17,East,90,1.7,1.7,84,0.00,,,0.00,,2013-01-31 04:27:00,
2013-01-31 05:32:00,45.3,40.6,30.17,East,90,1.7,2.2,84,0.00,,,0.00,,2013-01-31 04:32:00,
2013-01-31 05:37:00,45.5,40.8,30.17,East,90,2.2,2.2,84,0.00,,,0.00,,2013-01-31 04:37:00,
2013-01-31 05:42:00,45.5,40.8,30.17,NE,45,2.6,0.0,84,0.00,,,0.00,,2013-01-31 04:42:00,
2013-01-31 05:47:00,45.5,40.8,30.17,East,90,2.6,2.6,84,0.00,,,0.00,,2013-01-31 04:47:00,
2013-01-31 05:52:00,45.5,40.8,30.17,East,90,2.2,2.2,84,0.00,,,0.00,,2013-01-31 04:52:00,
2013-01-31 05:57:00,45.3,41.0,30.17,East,90,2.2,2.6,85,0.00,,,0.00,,2013-01-31 04:57:00,
2013-01-31 06:03:00,45.3,41.0,30.17,NE,45,1.3,1.3,85,0.00,,,0.00,,2013-01-31 05:03:00,
2013-01-31 06:07:00,45.3,41.0,30.17,NE,45,1.7,1.7,85,0.00,,,0.00,,2013-01-31 05:07:00,
2013-01-31 06:12:00,45.3,41.0,30.17,NE,45,0.4,1.7,85,0.00,,,0.00,,2013-01-31 05:12:00,
2013-01-31 06:17:00,45.3,41.0,30.17,NE,45,0.4,1.7,85,0.00,,,0.00,,2013-01-31 05:17:00,
2013-01-31 06:22:00,45.3,41.0,30.17,NE,45,0.8,1.7,85,0.00,,,0.00,,2013-01-31 05:22:00,
2013-01-31 06:27:00,44.8,40.5,30.20,East,90,0.8,0.8,85,0.00,,,0.00,,2013-01-31 05:27:00,
2013-01-31 06:32:00,44.8,40.5,30.20,East,90,0.8,0.8,85,0.00,,,0.00,,2013-01-31 05:32:00,
2013-01-31 06:37:00,45.1,41.4,30.20,East,90,1.3,2.2,87,-99.99,,,0.00,,2013-01-31 05:37:00,
2013-01-31 06:42:00,45.0,41.2,30.20,NE,45,0.8,3.5,87,-99.99,,,0.00,,2013-01-31 05:42:00,
2013-01-31 06:47:00,45.1,41.4,30.20,NE,45,1.3,1.3,87,-99.99,,,0.00,,2013-01-31 05:47:00,
2013-01-31 06:52:00,45.0,41.2,30.20,NE,45,1.7,1.7,87,-99.99,,,0.00,,2013-01-31 05:52:00,
2013-01-31 06:57:00,44.8,41.0,30.20,NE,45,1.3,1.7,87,-99.99,,,0.00,,2013-01-31 05:57:00,
2013-01-31 07:02:00,44.8,41.0,30.20,NE,45,0.4,0.0,87,-99.99,,,0.00,,2013-01-31 06:02:00,
2013-01-31 07:07:00,44.4,40.6,30.20,NE,45,0.0,0.0,87,-99.99,,,0.00,,2013-01-31 06:07:00,
2013-01-31 07:12:00,44.4,40.6,30.20,NE,45,0.8,0.8,87,-99.99,,,0.00,,2013-01-31 06:12:00,
2013-01-31 07:17:00,44.4,40.6,30.20,East,90,0.4,0.0,87,-99.99,,,0.00,,2013-01-31 06:17:00,
2013-01-31 07:22:00,44.4,40.6,30.20,NE,45,0.4,0.8,87,-99.99,,,0.00,,2013-01-31 06:22:00,
2013-01-31 07:27:00,44.1,40.3,30.20,East,90,0.0,0.0,87,-99.99,,,0.00,,2013-01-31 06:27:00,
2013-01-31 07:32:00,44.1,40.3,30.20,East,90,0.0,0.0,87,-99.99,,,0.00,,2013-01-31 06:32:00,
2013-01-31 07:37:00,44.1,40.3,30.20,ENE,67,0.4,0.8,87,-99.99,,,0.00,,2013-01-31 06:37:00,
2013-01-31 07:42:00,44.1,40.6,30.20,East,90,0.0,0.0,88,-99.99,,,0.00,,2013-01-31 06:42:00,
2013-01-31 07:47:00,44.2,40.8,30.20,East,90,0.8,1.3,88,-99.99,,,0.00,,2013-01-31 06:47:00,
2013-01-31 07:52:00,44.4,41.0,30.20,East,90,0.8,1.3,88,-99.99,,,0.00,,2013-01-31 06:52:00,
2013-01-31 07:57:00,45.0,41.9,30.20,NE,45,1.3,2.2,89,-99.99,,,0.00,,2013-01-31 06:57:00,
2013-01-31 08:02:00,45.5,42.4,30.20,NE,45,1.7,2.2,89,-99.99,,,0.00,,2013-01-31 07:02:00,
2013-01-31 08:07:00,45.5,42.4,30.20,East,90,0.8,1.3,89,-99.99,,,0.00,,2013-01-31 07:07:00,
2013-01-31 08:12:00,47.1,41.9,30.20,NE,45,0.8,0.0,82,-99.99,,,0.00,,2013-01-31 07:12:00,
2013-01-31 08:17:00,47.5,41.5,30.20,NE,45,1.3,0.0,80,-99.99,,,0.00,,2013-01-31 07:17:00,
2013-01-31 08:22:00,47.5,41.5,30.20,North,0,0.8,1.3,80,-99.99,,,0.00,,2013-01-31 07:22:00,
2013-01-31 08:27:00,47.5,41.5,30.20,East,90,0.4,0.0,80,-99.99,,,0.00,,2013-01-31 07:27:00,
2013-01-31 08:32:00,47.5,41.5,30.20,NW,315,0.4,1.3,80,-99.99,,,0.00,,2013-01-31 07:32:00,
2013-01-31 08:37:00,51.3,39.7,30.20,NW,315,0.4,0.0,65,-99.99,,,0.00,,2013-01-31 07:37:00,
2013-01-31 08:47:00,52.2,39.4,30.20,NE,45,1.3,2.6,62,-99.99,,,0.00,,2013-01-31 07:47:00,
2013-01-31 08:52:00,52.5,39.0,30.20,ENE,67,0.8,1.3,60,-99.99,,,0.00,,2013-01-31 07:52:00,
2013-01-31 09:02:00,54.0,39.9,30.20,North,0,0.8,0.8,59,-99.99,,,0.00,,2013-01-31 08:02:00,
2013-01-31 09:12:00,54.0,39.9,30.20,North,0,0.4,1.7,59,0.00,,,0.00,,2013-01-31 08:12:00,
2013-01-31 09:17:00,55.9,39.0,30.20,SE,135,1.3,1.7,53,0.00,,,0.00,,2013-01-31 08:17:00,
2013-01-31 09:22:00,55.9,39.0,30.20,East,90,0.8,1.7,53,0.00,,,0.00,,2013-01-31 08:22:00,
2013-01-31 09:27:00,57.4,39.7,30.20,NNE,22,0.8,2.6,52,0.00,,,0.00,,2013-01-31 08:27:00,
2013-01-31 09:32:00,57.4,39.4,30.20,SE,135,0.4,0.4,51,0.00,,,0.00,,2013-01-31 08:32:00,
2013-01-31 09:37:00,56.7,38.7,30.23,SE,135,1.3,3.5,51,0.00,,,0.00,,2013-01-31 08:37:00,
2013-01-31 09:47:00,56.8,39.4,30.23,East,90,2.6,3.1,52,0.00,,,0.00,,2013-01-31 08:47:00,
2013-01-31 09:52:00,57.9,40.3,30.23,East,90,1.3,2.6,52,0.00,,,0.00,,2013-01-31 08:52:00,
2013-01-31 09:57:00,58.1,39.9,30.23,NE,45,1.3,3.1,51,0.00,,,0.00,,2013-01-31 08:57:00,
2013-01-31 10:02:00,58.8,39.6,30.23,East,90,1.7,1.7,49,0.00,,,0.00,,2013-01-31 09:02:00,
2013-01-31 10:07:00,59.5,40.3,30.23,SE,135,1.7,2.6,49,0.00,,,0.00,,2013-01-31 09:07:00,
2013-01-31 10:12:00,61.0,41.0,30.23,ESE,112,0.4,0.8,48,0.00,,,0.00,,2013-01-31 09:12:00,
2013-01-31 10:17:00,59.7,38.8,30.23,East,90,2.6,2.6,46,0.00,,,0.00,,2013-01-31 09:17:00,
2013-01-31 10:22:00,61.5,40.5,30.23,ENE,67,2.6,3.1,46,0.00,,,0.00,,2013-01-31 09:22:00,
2013-01-31 10:27:00,61.3,40.3,30.23,NE,45,1.7,3.1,46,0.00,,,0.00,,2013-01-31 09:27:00,
2013-01-31 10:32:00,62.2,41.2,30.23,NW,315,2.2,2.2,46,0.00,,,0.00,,2013-01-31 09:32:00,
2013-01-31 10:37:00,62.4,41.2,30.23,North,0,0.8,1.7,46,0.00,,,0.00,,2013-01-31 09:37:00,
2013-01-31 10:42:00,62.1,39.2,30.23,South,180,1.7,5.3,43,0.00,,,0.00,,2013-01-31 09:42:00,
2013-01-31 10:47:00,64.2,41.2,30.23,SE,135,1.7,2.2,43,0.00,,,0.00,,2013-01-31 09:47:00,
2013-01-31 10:52:00,64.8,40.5,30.23,South,180,0.4,0.4,41,0.00,,,0.00,,2013-01-31 09:52:00,
2013-01-31 10:57:00,66.2,40.5,30.23,South,180,0.8,1.3,39,0.00,,,0.00,,2013-01-31 09:57:00,
2013-01-31 11:02:00,66.2,40.5,30.23,North,0,0.0,0.0,39,0.00,,,0.00,,2013-01-31 10:02:00,
2013-01-31 11:07:00,68.4,40.3,30.23,SW,225,0.4,0.0,36,0.00,,,0.00,,2013-01-31 10:07:00,
2013-01-31 11:12:00,66.0,38.8,30.23,West,270,1.3,1.3,37,0.00,,,0.00,,2013-01-31 10:12:00,
2013-01-31 11:17:00,65.8,38.7,30.23,NW,315,2.6,3.1,37,0.00,,,0.00,,2013-01-31 10:17:00,
2013-01-31 11:22:00,65.1,38.8,30.23,West,270,1.7,3.1,38,0.00,,,0.00,,2013-01-31 10:22:00,
2013-01-31 11:27:00,65.5,40.5,30.23,West,270,0.8,1.3,40,0.00,,,0.00,,2013-01-31 10:27:00,
2013-01-31 11:32:00,68.9,42.1,30.23,North,0,1.3,3.1,38,0.00,,,0.00,,2013-01-31 10:32:00,
2013-01-31 11:37:00,69.1,40.8,30.23,NNE,22,2.2,2.2,36,0.00,,,0.00,,2013-01-31 10:37:00,
2013-01-31 11:42:00,69.1,40.8,30.23,ENE,67,1.7,4.0,36,0.00,,,0.00,,2013-01-31 10:42:00,
2013-01-31 11:47:00,69.3,40.3,30.23,North,0,2.2,3.5,35,0.00,,,0.00,,2013-01-31 10:47:00,
2013-01-31 11:52:00,69.4,40.5,30.23,East,90,3.1,6.2,35,0.00,,,0.00,,2013-01-31 10:52:00,
2013-01-31 11:57:00,69.3,40.3,30.23,North,0,3.1,5.8,35,0.00,,,0.00,,2013-01-31 10:57:00,
2013-01-31 12:02:00,70.2,41.2,30.23,SE,135,4.0,4.9,35,0.00,,,0.00,,2013-01-31 11:02:00,
2013-01-31 12:07:00,69.4,40.5,30.23,NNE,22,2.2,5.3,35,0.00,,,0.00,,2013-01-31 11:07:00,
2013-01-31 12:12:00,68.5,39.7,30.23,East,90,5.8,5.8,35,0.00,,,0.00,,2013-01-31 11:12:00,
2013-01-31 12:17:00,69.1,40.1,30.23,East,90,4.0,4.0,35,0.00,,,0.00,,2013-01-31 11:17:00,
2013-01-31 12:22:00,71.1,41.9,30.23,East,90,4.0,5.8,35,0.00,,,0.00,,2013-01-31 11:22:00,
2013-01-31 12:27:00,70.9,41.0,30.23,NE,45,2.6,4.4,34,0.00,,,0.00,,2013-01-31 11:27:00,
2013-01-31 12:32:00,69.8,40.8,30.23,North,0,4.9,4.9,35,0.00,,,0.00,,2013-01-31 11:32:00,
2013-01-31 12:37:00,72.0,41.2,30.23,North,0,3.1,3.1,33,0.00,,,0.00,,2013-01-31 11:37:00,
2013-01-31 12:42:00,71.6,40.8,30.23,North,0,2.6,3.1,33,0.00,,,0.00,,2013-01-31 11:42:00,
2013-01-31 12:47:00,72.3,41.5,30.23,NE,45,0.8,2.6,33,0.00,,,0.00,,2013-01-31 11:47:00,
2013-01-31 12:53:00,72.9,41.2,30.23,East,90,2.2,2.6,32,0.00,,,0.00,,2013-01-31 11:53:00,
2013-01-31 13:07:00,73.9,40.5,30.23,North,0,0.8,3.1,30,0.00,,,0.00,,2013-01-31 12:07:00,
2013-01-31 13:12:00,75.6,40.1,30.23,North,0,2.2,4.9,28,0.00,,,0.00,,2013-01-31 12:12:00,
2013-01-31 13:22:00,75.4,39.9,30.23,North,0,2.6,4.0,28,0.00,,,0.00,,2013-01-31 12:22:00,
2013-01-31 13:27:00,75.6,40.1,30.23,NW,315,1.3,2.6,28,0.00,,,0.00,,2013-01-31 12:27:00,
2013-01-31 13:32:00,73.6,39.2,30.23,NW,315,4.4,4.4,29,0.00,,,0.00,,2013-01-31 12:32:00,
2013-01-31 13:37:00,73.6,39.2,30.23,NW,315,4.4,4.4,29,0.00,,,0.00,,2013-01-31 12:37:00,
2013-01-31 13:42:00,74.5,40.1,30.23,ENE,67,2.2,3.5,29,0.00,,,0.00,,2013-01-31 12:42:00,
2013-01-31 13:47:00,75.9,40.3,30.20,East,90,0.8,3.1,28,0.00,,,0.00,,2013-01-31 12:47:00,
2013-01-31 13:52:00,76.8,40.3,30.20,ENE,67,0.8,2.2,27,0.00,,,0.00,,2013-01-31 12:52:00,
2013-01-31 13:57:00,77.5,40.8,30.20,East,90,1.3,2.2,27,0.00,,,0.00,,2013-01-31 12:57:00,
2013-01-31 14:02:00,76.1,39.6,30.20,East,90,2.2,3.1,27,0.00,,,0.00,,2013-01-31 13:02:00,
2013-01-31 14:07:00,75.2,40.6,30.20,NW,315,1.3,1.7,29,0.00,,,0.00,,2013-01-31 13:07:00,
2013-01-31 14:12:00,77.7,41.0,30.20,South,180,0.4,1.7,27,0.00,,,0.00,,2013-01-31 13:12:00,
2013-01-31 14:17:00,77.7,39.9,30.20,East,90,2.2,2.6,26,0.00,,,0.00,,2013-01-31 13:17:00,
2013-01-31 14:22:00,74.8,39.4,30.20,SE,135,1.7,3.1,28,0.00,,,0.00,,2013-01-31 13:22:00,
2013-01-31 14:27:00,74.3,39.0,30.20,NE,45,1.3,1.3,28,0.00,,,0.00,,2013-01-31 13:27:00,
2013-01-31 14:32:00,76.1,39.6,30.20,East,90,0.8,2.6,27,0.00,,,0.00,,2013-01-31 13:32:00,
2013-01-31 14:37:00,74.7,39.2,30.20,NW,315,0.8,1.3,28,0.00,,,0.00,,2013-01-31 13:37:00,
2013-01-31 14:42:00,76.1,39.6,30.20,ENE,67,0.8,3.1,27,0.00,,,0.00,,2013-01-31 13:42:00,
2013-01-31 14:47:00,75.6,39.2,30.20,North,0,1.7,1.7,27,0.00,,,0.00,,2013-01-31 13:47:00,
2013-01-31 14:57:00,74.5,39.2,30.20,SE,135,1.7,2.2,28,0.00,,,0.00,,2013-01-31 13:57:00,
2013-01-31 15:02:00,71.2,37.2,30.20,South,180,2.2,2.2,29,0.00,,,0.00,,2013-01-31 14:02:00,
2013-01-31 15:12:00,75.6,40.1,30.20,South,180,0.4,0.0,28,0.00,,,0.00,,2013-01-31 14:12:00,
2013-01-31 15:17:00,76.8,40.3,30.20,South,180,1.3,1.7,27,0.00,,,0.00,,2013-01-31 14:17:00,
2013-01-31 15:22:00,75.6,39.2,30.20,West,270,0.4,3.1,27,0.00,,,0.00,,2013-01-31 14:22:00,
2013-01-31 15:27:00,78.6,41.7,30.20,SSE,157,0.0,0.8,27,0.00,,,0.00,,2013-01-31 14:27:00,
2013-01-31 15:32:00,75.9,38.5,30.20,WNW,292,1.7,3.1,26,0.00,,,0.00,,2013-01-31 14:32:00,
2013-01-31 15:37:00,74.5,39.2,30.17,NW,315,1.3,1.7,28,0.00,,,0.00,,2013-01-31 14:37:00,
2013-01-31 15:42:00,75.6,39.2,30.17,West,270,1.3,2.2,27,0.00,,,0.00,,2013-01-31 14:42:00,
2013-01-31 15:47:00,75.2,39.7,30.20,SW,225,0.4,0.0,28,0.00,,,0.00,,2013-01-31 14:47:00,
2013-01-31 15:52:00,74.5,39.2,30.20,NW,315,1.7,2.6,28,0.00,,,0.00,,2013-01-31 14:52:00,
2013-01-31 15:57:00,73.0,37.9,30.20,WSW,247,0.8,1.7,28,0.00,,,0.00,,2013-01-31 14:57:00,
2013-01-31 16:02:00,74.3,39.0,30.20,WNW,292,1.3,3.5,28,0.00,,,0.00,,2013-01-31 15:02:00,
2013-01-31 16:07:00,72.1,38.8,30.20,NW,315,2.6,4.0,30,0.00,,,0.00,,2013-01-31 15:07:00,
2013-01-31 16:12:00,72.0,38.7,30.20,NW,315,3.1,4.4,30,0.00,,,0.00,,2013-01-31 15:12:00,
2013-01-31 16:17:00,70.7,39.2,30.20,NW,315,2.6,3.1,32,0.00,,,0.00,,2013-01-31 15:17:00,
2013-01-31 16:22:00,69.1,41.5,30.20,NW,315,3.1,8.9,37,0.00,,,0.00,,2013-01-31 15:22:00,
2013-01-31 16:27:00,68.7,43.9,30.20,NW,315,6.2,6.2,41,0.00,,,0.00,,2013-01-31 15:27:00,
2013-01-31 16:32:00,66.7,45.1,30.20,NW,315,5.3,6.7,46,0.00,,,0.00,,2013-01-31 15:32:00,
2013-01-31 16:37:00,64.8,44.6,30.20,NW,315,3.5,4.0,48,0.00,,,0.00,,2013-01-31 15:37:00,
2013-01-31 16:42:00,64.6,45.9,30.20,NW,315,8.9,10.2,51,0.00,,,0.00,,2013-01-31 15:42:00,
2013-01-31 16:47:00,63.0,46.4,30.20,NW,315,7.1,9.3,55,0.00,,,0.00,,2013-01-31 15:47:00,
2013-01-31 16:52:00,63.1,47.1,30.20,West,270,6.2,8.5,56,0.00,,,0.00,,2013-01-31 15:52:00,
2013-01-31 16:57:00,63.0,46.9,30.20,NW,315,5.3,8.9,56,0.00,,,0.00,,2013-01-31 15:57:00,
2013-01-31 17:02:00,63.1,47.1,30.20,NW,315,5.3,5.3,56,0.00,,,0.00,,2013-01-31 16:02:00,
2013-01-31 17:07:00,62.8,46.8,30.20,NW,315,5.8,6.2,56,0.00,,,0.00,,2013-01-31 16:07:00,
2013-01-31 17:12:00,62.1,46.6,30.20,NW,315,4.4,5.3,57,0.00,,,0.00,,2013-01-31 16:12:00,
2013-01-31 17:17:00,62.1,46.6,30.20,WNW,292,3.5,3.5,57,0.00,,,0.00,,2013-01-31 16:17:00,
2013-01-31 17:22:00,60.4,46.4,30.20,NW,315,3.1,4.4,60,0.00,,,0.00,,2013-01-31 16:22:00,
2013-01-31 17:27:00,59.5,46.4,30.20,West,270,1.7,1.7,62,0.00,,,0.00,,2013-01-31 16:27:00,
2013-01-31 17:32:00,59.4,46.6,30.20,WNW,292,2.6,4.4,63,0.00,,,0.00,,2013-01-31 16:32:00,
2013-01-31 17:37:00,58.8,46.6,30.20,West,270,0.8,1.3,64,0.00,,,0.00,,2013-01-31 16:37:00,
2013-01-31 17:42:00,58.6,46.4,30.20,NW,315,2.2,3.1,64,0.00,,,0.00,,2013-01-31 16:42:00,
2013-01-31 17:52:00,57.7,46.4,30.20,South,180,1.3,1.7,66,0.00,,,0.00,,2013-01-31 16:52:00,
2013-01-31 17:57:00,57.6,46.6,30.20,SSW,202,1.3,2.6,67,0.00,,,0.00,,2013-01-31 16:57:00,
2013-01-31 18:07:00,57.0,47.3,30.20,South,180,1.7,1.7,70,0.00,,,0.00,,2013-01-31 17:07:00,
2013-01-31 18:12:00,56.7,47.3,30.23,East,90,0.4,1.7,71,0.00,,,0.00,,2013-01-31 17:12:00,
2013-01-31 18:17:00,56.7,47.3,30.23,West,270,1.3,1.7,71,0.00,,,0.00,,2013-01-31 17:17:00,
2013-01-31 18:22:00,56.7,47.7,30.23,WNW,292,1.3,4.9,72,0.00,,,0.00,,2013-01-31 17:22:00,
2013-01-31 18:27:00,56.7,47.7,30.23,NW,315,3.1,4.9,72,0.00,,,0.00,,2013-01-31 17:27:00,
2013-01-31 18:32:00,56.5,47.5,30.23,West,270,0.8,2.6,72,0.00,,,0.00,,2013-01-31 17:32:00,
2013-01-31 18:37:00,56.5,47.5,30.23,West,270,0.8,2.6,72,0.00,,,0.00,,2013-01-31 17:37:00,
2013-01-31 18:42:00,56.3,47.7,30.23,West,270,1.3,4.0,73,0.00,,,0.00,,2013-01-31 17:42:00,
2013-01-31 18:47:00,56.1,47.5,30.20,SW,225,1.3,1.3,73,0.00,,,0.00,,2013-01-31 17:47:00,
2013-01-31 18:52:00,55.9,47.3,30.20,West,270,1.3,3.1,73,0.00,,,0.00,,2013-01-31 17:52:00,
2013-01-31 18:57:00,55.9,47.3,30.20,West,270,2.2,3.1,73,0.00,,,0.00,,2013-01-31 17:57:00,
2013-01-31 19:02:00,55.8,47.1,30.20,West,270,1.3,0.0,73,0.00,,,0.00,,2013-01-31 18:02:00,
2013-01-31 19:07:00,55.4,47.1,30.20,SW,225,1.7,3.1,74,0.00,,,0.00,,2013-01-31 18:07:00,
2013-01-31 19:12:00,55.4,47.1,30.20,North,0,2.6,3.1,74,0.00,,,0.00,,2013-01-31 18:12:00,
2013-01-31 19:17:00,55.4,47.1,30.23,NW,315,4.0,5.3,74,0.00,,,0.00,,2013-01-31 18:17:00,
2013-01-31 19:22:00,55.2,46.9,30.23,WNW,292,4.4,4.9,74,0.00,,,0.00,,2013-01-31 18:22:00,
2013-01-31 19:27:00,55.2,46.9,30.20,WNW,292,4.4,4.4,74,0.00,,,0.00,,2013-01-31 18:27:00,
2013-01-31 19:32:00,55.2,47.3,30.20,West,270,3.5,3.5,75,0.00,,,0.00,,2013-01-31 18:32:00,
2013-01-31 19:37:00,54.9,47.3,30.20,West,270,2.6,4.9,76,0.00,,,0.00,,2013-01-31 18:37:00,
2013-01-31 19:42:00,54.7,47.1,30.20,West,270,3.5,5.8,76,0.00,,,0.00,,2013-01-31 18:42:00,
2013-01-31 19:47:00,54.7,47.1,30.23,West,270,3.1,5.3,76,0.00,,,0.00,,2013-01-31 18:47:00,
2013-01-31 19:52:00,54.7,47.5,30.23,NW,315,4.0,4.4,77,0.00,,,0.00,,2013-01-31 18:52:00,
2013-01-31 19:57:00,54.7,47.5,30.20,NW,315,5.3,6.7,77,0.00,,,0.00,,2013-01-31 18:57:00,
2013-01-31 20:02:00,54.5,47.3,30.20,NW,315,5.3,5.8,77,0.00,,,0.00,,2013-01-31 19:02:00,
2013-01-31 20:07:00,54.3,47.5,30.20,NW,315,4.0,5.3,78,0.00,,,0.00,,2013-01-31 19:07:00,
2013-01-31 20:12:00,54.1,47.7,30.20,West,270,3.1,3.5,79,0.00,,,0.00,,2013-01-31 19:12:00,
2013-01-31 20:17:00,54.1,47.7,30.20,NW,315,2.6,5.3,79,0.00,,,0.00,,2013-01-31 19:17:00,
2013-01-31 20:22:00,54.0,47.8,30.20,NW,315,3.1,3.5,80,0.00,,,0.00,,2013-01-31 19:22:00,
2013-01-31 20:27:00,54.0,48.2,30.20,NW,315,4.4,6.2,81,0.00,,,0.00,,2013-01-31 19:27:00,
2013-01-31 20:32:00,53.8,48.0,30.20,NW,315,4.9,5.3,81,0.00,,,0.00,,2013-01-31 19:32:00,
2013-01-31 20:37:00,53.6,48.2,30.20,NW,315,3.5,4.4,82,0.00,,,0.00,,2013-01-31 19:37:00,
2013-01-31 20:42:00,53.6,48.6,30.20,NW,315,4.4,4.4,83,0.00,,,0.00,,2013-01-31 19:42:00,
2013-01-31 20:47:00,53.4,48.4,30.20,WNW,292,4.4,5.3,83,0.00,,,0.00,,2013-01-31 19:47:00,
2013-01-31 20:52:00,53.4,48.9,30.20,WNW,292,4.9,8.5,85,0.00,,,0.00,,2013-01-31 19:52:00,
2013-01-31 20:57:00,53.4,48.9,30.20,NW,315,5.8,5.8,85,0.00,,,0.00,,2013-01-31 19:57:00,
2013-01-31 21:02:00,53.4,48.9,30.20,West,270,3.5,5.8,85,0.00,,,0.00,,2013-01-31 20:02:00,
2013-01-31 21:07:00,53.2,48.7,30.20,West,270,2.2,5.3,85,0.00,,,0.00,,2013-01-31 20:07:00,
2013-01-31 21:12:00,53.2,48.7,30.20,West,270,4.0,8.0,85,0.00,,,0.00,,2013-01-31 20:12:00,
2013-01-31 21:17:00,53.4,48.9,30.20,SW,225,3.5,4.4,85,0.00,,,0.00,,2013-01-31 20:17:00,
2013-01-31 21:22:00,53.2,48.7,30.20,West,270,3.1,3.1,85,0.00,,,0.00,,2013-01-31 20:22:00,
2013-01-31 21:27:00,53.4,48.9,30.20,West,270,3.1,3.1,85,0.00,,,0.00,,2013-01-31 20:27:00,
2013-01-31 21:32:00,53.2,48.7,30.20,West,270,3.1,5.3,85,0.00,,,0.00,,2013-01-31 20:32:00,
2013-01-31 21:37:00,53.1,48.6,30.20,West,270,3.1,4.0,85,0.00,,,0.00,,2013-01-31 20:37:00,
2013-01-31 21:42:00,53.4,48.9,30.20,West,270,6.2,6.7,85,0.00,,,0.00,,2013-01-31 20:42:00,
2013-01-31 21:47:00,53.2,48.7,30.20,NW,315,6.7,6.7,85,0.00,,,0.00,,2013-01-31 20:47:00,
2013-01-31 21:52:00,53.1,48.6,30.20,NW,315,5.8,5.8,85,0.00,,,0.00,,2013-01-31 20:52:00,
2013-01-31 21:57:00,53.1,48.6,30.23,West,270,4.4,4.9,85,0.00,,,0.00,,2013-01-31 20:57:00,
2013-01-31 22:02:00,52.9,48.4,30.23,West,270,2.6,3.5,85,0.00,,,0.00,,2013-01-31 21:02:00,
2013-01-31 22:07:00,52.9,48.4,30.23,West,270,3.5,4.4,85,0.00,,,0.00,,2013-01-31 21:07:00,
2013-01-31 22:12:00,53.1,48.6,30.23,West,270,2.2,3.1,85,0.00,,,0.00,,2013-01-31 21:12:00,
2013-01-31 22:17:00,52.9,48.4,30.23,West,270,1.3,4.9,85,0.00,,,0.00,,2013-01-31 21:17:00,
2013-01-31 22:22:00,52.7,48.2,30.23,SW,225,2.2,3.1,85,0.00,,,0.00,,2013-01-31 21:22:00,
2013-01-31 22:27:00,52.9,48.4,30.23,South,180,3.1,4.0,85,0.00,,,0.00,,2013-01-31 21:27:00,
2013-01-31 22:32:00,52.9,48.4,30.23,West,270,2.6,3.5,85,0.00,,,0.00,,2013-01-31 21:32:00,
2013-01-31 22:37:00,52.5,48.4,30.20,South,180,1.7,3.1,86,0.00,,,0.00,,2013-01-31 21:37:00,
2013-01-31 22:42:00,52.7,48.9,30.20,South,180,2.2,5.3,87,0.00,,,0.00,,2013-01-31 21:42:00,
2013-01-31 22:47:00,52.7,48.9,30.20,South,180,1.7,3.5,87,0.00,,,0.00,,2013-01-31 21:47:00,
2013-01-31 22:53:00,52.7,48.9,30.20,SW,225,1.3,1.3,87,0.00,,,0.00,,2013-01-31 21:53:00,
2013-01-31 22:58:00,52.3,48.6,30.20,West,270,0.8,0.8,87,0.00,,,0.00,,2013-01-31 21:58:00,
2013-01-31 23:02:00,51.8,48.0,30.20,South,180,0.0,0.4,87,0.00,,,0.00,,2013-01-31 22:02:00,
2013-01-31 23:08:00,51.8,48.0,30.20,South,180,1.3,2.6,87,0.00,,,0.00,,2013-01-31 22:08:00,
2013-01-31 23:13:00,51.6,48.4,30.20,East,90,0.4,3.1,89,0.00,,,0.00,,2013-01-31 22:13:00,
2013-01-31 23:18:00,51.3,48.4,30.20,East,90,1.3,1.3,90,0.00,,,0.00,,2013-01-31 22:18:00,
2013-01-31 23:22:00,51.1,47.3,30.20,South,180,2.2,2.2,87,0.00,,,0.00,,2013-01-31 22:22:00,
2013-01-31 23:28:00,50.5,46.0,30.20,South,180,1.3,3.5,85,0.00,,,0.00,,2013-01-31 22:28:00,
2013-01-31 23:32:00,50.5,46.0,30.20,East,90,0.8,0.8,85,0.00,,,0.00,,2013-01-31 22:32:00,
2013-01-31 23:38:00,50.2,45.1,30.20,South,180,2.6,2.6,83,0.00,,,0.00,,2013-01-31 22:38:00,
2013-01-31 23:43:00,50.0,45.3,30.20,SSE,157,1.3,3.5,84,0.00,,,0.00,,2013-01-31 22:43:00,
2013-01-31 23:48:00,49.8,45.1,30.20,South,180,1.7,4.4,84,0.00,,,0.00,,2013-01-31 22:48:00,
2013-01-31 23:53:00,49.5,44.8,30.20,East,90,1.3,3.1,84,0.00,,,0.00,,2013-01-31 22:53:00,